Location: Bauen
(46.9356°N, 8.5784°E)
Time: 17:40:36
(UTC+00:00)

USA 215 - Pass Details

Date: 18 February 2020
Orbit: 1098 x 1110 km, 123.0° (Epoch: 08 March)

Event Time Altitude Azimuth Distance (km) Brightness Sun altitude
Rises 05:53:49 0° 83° (E) 3,914 7.8 -6.2°
Reaches altitude 10° 05:56:27 10° 76° (ENE) 2,958 6.7 -5.8°
Maximum altitude 06:02:24 39° 10° (N) 1,587 4.1 -4.8°
Drops below altitude 10° 06:08:22 10° 304° (NW) 2,968 4.9 -3.8°
Enters shadow 06:10:15 - 299° (WNW) 3,649 5.4 -3.5°
